Regional Weather Roundup
Issued by NWS Albany, NY

Home | Current Version | Previous Version | Graphics & Text | Print | Product List | Glossary Off
Versions: 1 2 3 4 5 6 7 8 9 10 11 12 13 14 15 16 17 18 19 20 21 22 23 24 25 26 27 28 29 30 31 32 33 34 35 36 37 38 39 40 41 42 43 44 45 46 47 48 49 50

000
ASUS41 KALY 201510
RWRALY

NEW YORK STATE HOURLY WEATHER ROUNDUP
NATIONAL WEATHER SERVICE ALBANY NY
1100 AM EDT MON APR 20 2015

NOTE: "FAIR" INDICATES FEW OR NO CLOUDS BELOW 12,000 FEET WITH NO
SIGNIFICANT WEATHER AND/OR NO OBSTRUCTIONS TO VISIBILITY.

NYZ032-033-038>043-046>054-057>066-NYZ062>081-201600-
EAST


CITY           SKY/WX    TMP DP  RH WIND       PRES   REMARKS
ALBANY         LGT RAIN  48  42  80 SE8G22    29.89F
GLENS FALLS    CLOUDY    45  38  76 CALM      29.91F
POUGHKEEPSIE   RAIN      51  47  86 SE15G22   29.84F FOG
MONTGOMERY     RAIN      49 N/A N/A NE7       29.82F
WHITE PLAINS   RAIN      47  46  97 E16G28    29.80F VSB 1
ISLIP          LGT RAIN  52  49  89 E32G43    29.81F FOG
NEW YORK CITY  RAIN      55  53  93 E22G39    29.76F FOG
CENTRAL PARK   HVY RAIN  50  49  96 NE9G18    29.78F VSB 3/4
$$

NYZ005>009-017-018-044>046-055-056-201600-
CENTRAL


CITY           SKY/WX    TMP DP  RH WIND       PRES   REMARKS
FULTON         CLOUDY    47  39  74 SE10G21   29.67R
SYRACUSE       LGT RAIN  49  42  77 E17       29.68F
ROME           LGT RAIN  44  39  82 SE17G25   29.80S
ELMIRA         LGT RAIN  53  50  89 SE13G23   29.66S FOG
BINGHAMTON     CLOUDY    47  45  93 SE20G32   29.70S
MONTICELLO     CLOUDY    43  43 100 E14       29.81F
$$

NYZ026>034-041>043-201600-
NORTH


CITY           SKY/WX    TMP DP  RH WIND       PRES   REMARKS
WATERTOWN      LGT RAIN  51  38  60 S17G30    29.63F
FORT DRUM      NOT AVBL
MASSENA        LGT RAIN  46  42  86 E13       29.77F
SARANAC LAKE   CLOUDY    46  39  76 SE12G26   29.75F
PLATTSBURGH    LGT RAIN  40  38  93 S14       29.92F WCI  32
$$

NYZ001>004-010>016-019>021-201600-
WEST


CITY           SKY/WX    TMP DP  RH WIND       PRES   REMARKS
NIAGARA FALLS  PTSUNNY   57  49  74 S17       29.45S
BUFFALO        PTSUNNY   60  50  69 S18G28    29.47F
DUNKIRK        PTSUNNY   63  51  65 S23G36    29.47R
JAMESTOWN      CLOUDY    54  48  82 S18G25    29.52S
WELLSVILLE     CLOUDY    52  47  83 SE16G26   29.60F
ROCHESTER      CLOUDY    59  48  67 S16G29    29.54F
PENN YAN       CLOUDY    54  48  80 SE18G28   29.63F
$$

             KEY
       WCI = WIND CHILL INDEX
       VSB = VISIBILITY
       HX  = HEAT INDEX
$$



USA.gov is the U.S. government's official web portal to all federal, state and local government web resources and services.